Location: David Mid Texas Observatory
(30.9664°N, 96.2113°W)
Time: 16:48:39
(UTC-05:00)

Tiangong 2 - Visible Passes

Search period start: 23 June 2018 00:00
Search period end: 03 July 2018 00:00
Orbit: 385 x 396 km, 42.8° (Epoch: 23 June)

Date Brightness Start Highest point End Pass type
(mag) Time Alt. Az. Time Alt. Az. Time Alt. Az.
23 Jun 1.8 05:41:13 10° SW 05:44:14 46° SE 05:47:20 10° ENE visible
24 Jun 2.8 04:46:25 21° SSE 04:46:49 22° SE 04:49:24 10° E visible
25 Jun 1.2 05:23:54 19° WSW 05:26:02 72° NNW 05:29:14 10° NE visible
26 Jun 1.7 04:29:00 48° ESE 04:29:00 48° ESE 04:31:44 10° ENE visible
27 Jun 2.4 05:06:25 20° WNW 05:08:02 33° NNW 05:11:00 10° NE visible
28 Jun 2.4 04:11:29 40° NNE 04:11:29 40° NNE 04:13:44 10° NE visible
28 Jun 3.8 05:45:58 10° NW 05:47:53 15° NNW 05:49:47 10° NNE visible
29 Jun 3.3 04:48:51 15° NW 04:50:15 20° NNW 04:52:43 10° NNE visible
30 Jun 3.5 03:53:54 23° NNE 03:53:54 23° NNE 03:55:36 10° NE visible
30 Jun 4.0 05:29:12 10° NNW 05:30:18 11° N 05:31:25 10° NNE visible
01 Jul 3.8 04:31:16 11° NW 04:32:39 14° NNW 04:34:25 10° NNE visible
02 Jul 4.2 03:36:20 15° N 03:36:20 15° N 03:37:26 10° NNE visible
02 Jul 4.4 05:12:41 10° N 05:12:52 10° N 05:13:03 10° N visible
